Location: Newark
(45.2500°N, 7.5833°E)
Time: 06:05:47
(UTC+00:00)

A-11 Canister half - Pass Details

Date: 29 January 2020
Orbit: 1524 x 1684 km, 47.3° (Epoch: 20 February)

Event Time Altitude Azimuth Distance (km) Brightness Sun altitude
Rises 18:55:37 0° 273° (W) 4,687 12.9 -25.3°
Reaches altitude 10° 18:58:38 10° 275° (W) 3,715 12.0 -25.9°
Maximum altitude 19:08:05 79° 2° (N) 1,596 8.9 -27.5°
Enters shadow 19:11:03 51° 80° (E) 1,930 9.0 -28.0°
